Location: Bogis-Bossey
(46.3500°N, 6.1667°E)
Time: 17:35:58
(UTC+00:00)

Cosmos 839 Rocket - Pass Details

Date: 17 August 2022
Orbit: 965 x 2087 km, 65.9° (Epoch: 30 September)

Event Time Altitude Azimuth Distance (km) Brightness Sun altitude
Exits shadow 23:11:01 47° 78° (ENE) 1,264 4.5 -30.1°
Drops below altitude 10° 23:15:50 10° 42° (NE) 2,755 6.8 -30.2°
Sets 23:18:30 0° 38° (NE) 3,768 7.7 -30.3°
